Dewpoint
-10 -10 -1 1 -2 -4 -4 -5 -6 -2 6 5 5 6 5 7 7 7 8 4 2 2 5 5 7 8 10 9 7 3 -7 -9 -7 -6 -6 -7 -7 -7 -6 -5 -3 -2 -1 -1 -0 0 -0 -1 5
-9 -7 0 0 -3 -4 -5 -5 -7 -4 3 6 5 7 7 8 6 7 9 6 5 3 2 3 6 8 9 8 5 1 -8 -11 -8 -7 -7 -7 -7 -7 -6 -5 -4 -3 -2 -1 -1 -0 0 1 6
-2 -0 -0 -2 -1 -2 -2 -4 2 6 8 6 7 7 7 7 7 7 8 8 7 3 0 2 6 8 9 6 4 -1 -10 -11 -10 -8 -7 -7 -7 -7 -7 -7 -5 -4 -3 -1 -1 -0 0 1 4
-2 1 -1 -0 1 -1 -3 -3 -4 5 8 8 9 9 7 7 4 6 7 8 8 3 1 3 5 8 7 4 3 -4 -8 -10 -10 -9 -8 -7 -7 -8 -7 -7 -7 -5 -3 -2 -1 0 0 1 1
-0 0 0 1 -0 -2 -3 -4 -4 -2 4 9 10 12 10 7 6 5 7 9 7 2 1 3 6 6 5 3 0 -6 -5 -7 -8 -9 -10 -10 -9 -9 -9 -8 -7 -7 -5 -4 -3 -2 0 1 1
-1 -2 0 1 -0 -3 -4 -4 -5 -1 9 11 11 11 11 9 7 7 8 8 5 -0 0 3 6 4 3 2 -3 -4 -3 -3 -3 -4 -6 -8 -9 -10 -9 -9 -8 -8 -7 -6 -5 -3 -3 -1 0
-2 -3 -2 -1 -2 -3 -4 -5 -5 3 11 11 11 12 12 10 8 7 8 7 5 1 0 3 4 4 4 1 -6 -3 -0 1 0 -1 -3 -5 -5 -6 -7 -7 -7 -7 -6 -6 -5 -4 -3 -1 9
-4 -4 -3 -3 -2 -2 -5 -5 -2 7 7 10 10 11 12 10 9 9 9 7 5 2 2 2 3 4 3 -0 -6 -2 1 2 3 2 -0 -2 -2 -2 -1 -1 -1 -1 -1 -2 -3 -3 -2 2 11
-3 -3 -2 -3 -3 -3 -5 -4 -5 6 11 9 10 9 7 10 9 9 10 8 5 4 3 3 2 3 3 -0 -4 -0 2 3 5 5 3 1 0 1 1 2 3 5 5 4 3 2 6 9 11
-3 -2 -3 -5 -4 -3 -4 -5 -5 4 9 8 10 10 8 9 9 9 10 10 6 4 4 3 3 4 3 2 -1 0 2 4 5 6 5 3 2 3 5 5 7 8 8 7 6 6 8 12 12
-3 -1 -3 -3 -4 -4 -5 -6 -5 -1 1 8 10 10 8 9 10 10 10 10 9 5 3 2 4 5 5 4 2 1 2 3 5 6 7 6 4 4 8 8 9 11 11 10 10 11 11 11 11
-3 -4 -4 -4 -4 -4 -5 -5 -5 -5 -5 -3 4 7 8 9 10 9 10 10 10 10 8 6 4 4 6 6 5 4 3 4 4 5 7 7 6 5 8 10 10 11 11 11 11 11 11 11 12
-3 -4 -3 -3 -3 -4 -4 -5 -5 -5 -6 -5 7 9 9 10 10 9 9 9 10 10 10 11 11 7 5 6 6 6 6 5 5 6 7 8 7 6 8 11 10 11 12 11 11 10 11 12 12
-4 -2 -2 -2 -3 -3 -4 -5 -5 -5 -5 -4 7 10 10 10 9 10 10 9 9 10 9 10 11 12 8 5 5 6 6 6 7 7 7 8 8 8 9 13 12 10 12 11 11 11 12 12 11
-2 -1 -2 -3 -3 -4 -5 -4 -4 -6 -6 -2 7 9 10 10 11 9 6 6 6 5 9 7 6 8 9 4 3 3 5 6 7 8 8 9 9 8 10 12 11 11 11 11 11 12 12 12 11
-1 -2 0 -2 -3 -4 -4 -1 -4 -6 -6 -6 -1 8 11 10 10 9 8 6 5 8 7 4 4 4 5 4 3 3 3 5 5 7 9 10 9 10 11 12 12 11 12 12 12 12 12 12 10
-0 0 -0 -1 -4 -3 -4 -2 -5 -5 -5 -6 -6 -3 8 10 12 11 9 7 6 6 6 7 7 7 5 4 5 5 5 5 6 8 11 9 9 10 12 12 13 12 12 12 12 12 12 12 10
2 1 -1 -1 -4 -5 -4 -4 -6 -7 -6 -5 -6 -6 -5 1 8 8 8 7 7 8 8 8 8 8 8 7 7 7 7 6 6 10 12 10 9 10 12 12 13 13 12 13 13 12 11 11 7
-2 -1 -1 -3 -5 -4 -4 -4 -5 -6 -7 -7 -7 -7 -6 -6 -6 -3 4 8 7 8 10 10 9 9 10 10 9 6 6 8 9 12 13 12 10 10 12 12 13 13 12 12 12 11 11 9 5
0 0 -1 -3 -4 -4 -5 -5 -7 -7 -7 -7 -7 -7 -7 -7 -6 -6 -3 3 7 7 7 8 9 10 10 10 9 8 7 7 10 11 13 13 11 11 12 12 13 13 12 12 12 11 9 5 -1
-0 1 -1 -2 -3 -4 -3 -3 -6 -7 -6 -6 -6 -6 -6 -7 -7 -7 -6 0 -2 7 7 7 6 7 9 11 11 11 11 11 11 12 12 13 11 10 11 11 13 13 12 11 11 10 8 -4 -6
-2 -4 -2 -3 -2 -2 -5 -1 -6 -7 -5 -6 -7 -7 -8 -7 -7 -8 -6 -5 -2 2 6 6 7 7 8 11 12 11 10 9 7 9 11 12 11 11 11 12 13 13 11 11 10 9 6 -6 -9
-3 -2 -2 -2 -2 -2 -3 -2 -4 -6 -5 -6 -6 -7 -7 -7 -8 -7 -8 -7 -6 -5 -4 -4 -3 3 7 9 11 12 12 11 10 10 11 12 12 11 12 13 13 13 12 11 10 7 2 -7 -11
-2 -0 -0 -1 3 6 -1 -2 -2 -4 -5 -7 -7 -8 -9 -9 -9 -9 -8 -8 -8 -8 -6 -2 2 -1 0 5 10 11 12 12 12 11 11 12 11 12 14 14 13 13 12 11 10 5 -4 -8 -11
-1 1 4 4 7 8 3 -1 -3 -5 -6 -7 -7 -7 -7 -6 -5 -5 -7 -8 -7 -7 -6 -5 -2 -2 1 5 8 10 11 13 12 11 8 9 10 12 14 14 13 13 12 11 7 -0 -5 -10 -12
-1 1 5 7 6 4 2 5 2 -3 -4 -4 -5 -4 -3 -4 -5 -5 -4 -5 -4 -4 -3 -3 -3 -2 0 5 6 9 13 13 13 11 9 9 9 11 13 13 13 12 11 8 5 -1 -7 -10 -14
1 2 -0 3 3 5 4 2 -0 -1 -2 -2 -2 -2 -3 -3 -3 -4 -4 -4 -3 -3 -2 -1 -2 -1 -1 -0 5 11 12 13 13 11 9 9 10 11 12 13 13 10 9 6 4 -2 -8 -11 -16
0 0 4 4 8 6 3 4 4 1 1 0 0 0 0 0 -0 -1 -1 -1 -2 -2 -2 -2 -0 -1 -0 2 6 10 11 13 13 12 11 11 11 11 12 12 12 10 6 5 1 -4 -7 -12 -15
2 3 3 4 6 8 8 5 -1 1 3 1 -0 2 2 2 2 1 1 -1 -1 -2 -2 -2 -0 -2 4 10 9 12 14 13 13 13 12 12 12 11 11 12 12 8 5 3 -1 -4 -7 -14 -14
-1 3 5 6 6 7 8 6 0 1 -3 -5 -1 -1 -4 -5 0 2 1 1 -0 -1 -2 -3 2 1 4 9 12 14 15 14 13 12 13 12 11 11 12 12 12 8 4 1 -2 -3 -9 -15 -11
Wind_Speed
5 4 8 6 3 5 3 6 3 3 4 8 17 6 8 1 4 4 16 31 29 28 28 27 24 23 22 19 17 15 15 16 16 16 15 14 13 12 12 12 12 13 13 13 14 13 12 11 11
4 4 5 2 4 3 5 4 5 6 6 11 17 4 3 1 4 11 27 27 26 26 27 27 26 24 23 20 19 16 15 16 16 15 14 12 12 11 11 11 10 11 11 11 11 11 11 10 9
4 4 2 4 3 2 4 3 6 2 22 22 7 7 2 5 9 26 28 27 29 28 27 27 26 25 23 20 19 17 16 16 15 14 12 11 11 11 10 10 9 10 9 10 10 10 9 9 8
5 1 4 3 3 6 5 5 4 6 3 4 10 4 3 2 19 17 26 24 29 27 26 26 26 25 23 21 19 17 16 15 14 13 11 10 10 10 10 9 8 9 8 8 8 8 8 8 7
5 2 4 3 5 6 6 17 11 9 5 13 13 6 5 15 10 19 24 26 28 27 26 26 25 25 23 21 19 18 16 15 14 12 10 8 8 8 8 8 7 7 7 6 6 6 6 6 6
2 3 4 1 5 6 7 11 8 9 7 8 6 6 3 11 10 20 23 26 25 25 27 27 26 24 23 22 20 18 16 14 13 12 11 9 8 7 7 7 6 5 4 4 5 5 5 5 5
5 4 3 3 4 6 5 13 3 5 11 5 14 4 3 15 17 19 24 24 25 26 27 27 27 25 23 21 20 19 16 15 13 12 10 9 9 7 6 6 5 4 3 3 3 4 4 5 6
3 4 1 4 3 5 6 10 7 8 5 16 12 6 7 23 25 24 23 22 25 27 27 28 28 27 25 23 21 20 17 15 13 11 11 10 9 7 7 5 4 3 2 3 2 3 3 5 5
3 4 2 4 3 6 10 7 12 3 17 7 7 9 9 28 30 27 25 26 28 29 29 29 29 28 26 24 23 21 19 16 15 13 12 10 9 8 6 6 5 3 2 2 1 2 4 5 3
4 4 7 5 2 5 16 5 6 2 1 3 5 11 19 29 32 32 32 31 31 32 32 30 30 29 28 26 25 24 21 19 17 14 13 11 10 8 7 7 6 2 1 2 3 3 5 3 3
4 5 5 9 16 16 11 8 1 6 3 7 12 17 30 31 31 31 31 29 28 29 33 33 31 30 30 29 27 26 24 22 19 17 15 14 13 11 8 9 4 3 2 2 5 5 5 1 2
2 9 6 7 4 10 6 8 5 6 4 5 10 16 32 33 33 32 32 30 30 30 30 31 32 31 31 30 29 28 26 24 23 20 18 17 16 14 11 9 6 6 4 4 4 3 3 5 4
4 4 9 10 19 12 14 11 5 9 5 3 11 25 32 33 32 32 30 29 28 30 30 30 30 32 32 32 31 30 29 27 24 23 21 20 19 17 14 13 8 10 9 6 6 6 7 7 7
5 9 14 8 16 13 5 6 3 9 4 5 16 30 34 34 34 35 33 32 32 30 29 30 29 31 34 34 34 33 31 29 27 26 24 22 21 19 16 16 11 12 11 11 11 10 11 10 10
8 7 5 6 6 5 4 6 8 19 8 7 21 26 35 37 38 37 32 34 32 32 31 29 28 30 33 36 35 34 34 32 30 29 27 26 24 21 19 16 14 13 12 15 15 15 12 13 11
4 1 4 4 1 4 7 10 10 19 18 18 16 25 34 39 42 38 37 35 35 35 34 31 30 31 34 37 38 37 36 35 33 30 28 28 28 25 22 19 16 13 16 17 17 16 16 15 13
5 4 5 8 7 4 7 5 5 16 13 17 17 22 31 39 45 45 42 38 38 39 37 37 37 35 35 37 40 41 39 37 35 32 30 28 29 29 27 22 19 17 20 21 20 20 19 18 16
6 5 5 8 3 3 10 10 8 25 23 22 27 22 25 35 44 46 46 43 43 44 43 42 41 38 38 40 41 42 41 40 38 36 32 29 30 32 31 26 24 24 24 25 24 23 21 18 17
4 5 8 3 1 5 6 10 10 19 26 13 28 34 26 27 37 43 47 50 46 47 47 49 46 45 44 44 44 44 44 43 42 39 35 32 31 34 32 30 29 28 27 27 26 24 23 20 20
6 8 17 8 5 3 12 19 18 8 16 23 26 33 34 31 30 32 42 51 54 52 50 49 50 51 51 50 48 46 44 44 43 39 37 34 34 35 33 32 32 30 28 29 28 27 24 22 21
11 14 16 10 5 7 5 18 20 15 13 28 27 28 29 30 33 29 31 45 45 58 57 56 55 55 55 56 52 49 46 46 44 43 40 39 37 36 36 34 34 32 31 31 30 28 25 24 23
11 4 11 10 2 10 4 8 21 8 9 7 24 29 28 28 28 28 29 36 41 52 59 59 62 62 61 57 58 57 55 53 51 50 46 43 39 38 38 36 35 33 32 32 31 29 28 26 24
8 3 6 6 9 7 14 5 21 2 9 8 10 23 24 23 28 31 26 23 30 34 44 45 50 58 61 63 61 62 60 57 51 51 50 46 42 41 40 39 38 36 35 33 32 32 30 28 25
7 3 4 6 3 7 20 8 26 14 12 5 7 25 31 37 37 37 38 34 36 34 32 45 52 53 55 60 63 64 63 61 56 52 53 49 45 45 45 44 42 38 37 35 33 32 30 27 24
6 1 3 4 6 11 14 9 24 5 9 8 10 22 22 26 30 31 31 35 32 32 32 34 43 45 55 61 62 65 64 62 59 57 51 49 49 49 49 45 45 42 39 35 33 32 30 27 23
5 6 5 5 4 11 6 11 21 21 24 26 27 27 35 40 44 40 35 28 28 32 39 31 36 43 50 60 63 64 64 63 61 58 52 51 49 51 49 47 45 43 39 36 34 32 29 25 22
3 3 3 4 9 8 7 9 16 17 11 12 19 27 32 38 41 50 47 41 44 44 44 39 38 42 49 53 62 64 63 62 63 57 52 50 48 50 48 46 46 43 41 39 35 33 30 25 20
3 3 3 1 4 5 7 7 12 14 14 16 13 23 30 33 36 38 40 43 42 40 46 52 41 43 49 55 61 63 62 61 62 52 52 50 45 45 47 47 47 45 42 39 36 32 28 23 19
5 2 3 2 2 3 5 5 8 5 8 13 16 24 29 33 37 40 45 47 47 47 50 54 45 42 48 56 59 58 55 59 61 51 51 49 45 43 49 49 48 47 45 41 37 33 28 23 18
2 3 3 3 3 3 4 10 8 5 17 23 23 32 37 41 39 39 44 45 45 50 50 54 43 41 46 52 55 51 52 57 55 53 51 47 46 45 47 49 47 49 44 40 37 32 26 21 16
Wind_Direction
353 349 328 327 38 61 272 276 276 15 114 163 160 167 202 124 175 210 152 167 167 168 172 172 176 178 177 173 166 160 156 157 155 149 144 139 130 124 119 115 109 108 105 107 105 104 104 110 112
13 347 337 43 77 38 285 254 258 223 162 157 166 173 209 199 163 145 152 161 169 172 175 173 177 179 178 176 171 165 160 160 158 154 147 139 131 125 121 115 114 110 107 104 104 104 105 104 108
17 342 347 87 101 209 271 258 3 271 153 143 145 188 227 171 147 143 157 159 170 177 177 175 176 179 179 177 175 167 163 162 162 157 150 145 137 130 126 123 121 113 111 109 108 107 108 110 115
346 23 58 80 250 256 224 274 32 1 167 252 166 113 109 321 141 151 155 162 172 179 177 176 175 179 181 180 178 171 165 164 162 158 154 153 142 141 137 133 131 127 122 115 110 109 110 110 115
355 69 55 26 277 262 247 258 211 202 218 175 177 158 100 147 152 157 161 168 176 178 176 178 176 181 183 182 180 175 170 166 161 155 155 156 147 146 142 139 133 126 126 123 115 107 103 107 113
73 84 53 307 258 276 280 278 165 188 179 162 140 98 122 179 181 159 166 168 178 180 177 177 178 185 186 184 181 178 174 168 162 158 158 155 154 156 150 140 135 131 124 116 108 101 100 105 109
122 88 196 246 263 308 278 330 111 179 154 170 146 90 169 173 178 168 169 175 178 183 181 179 183 186 188 187 184 182 179 174 170 165 162 160 162 158 149 138 132 130 125 110 99 102 104 109 96
154 98 192 250 272 281 303 352 52 149 175 153 145 169 188 179 172 171 171 180 184 186 185 186 188 188 189 189 189 188 187 182 177 175 175 173 173 169 157 146 135 124 108 98 109 110 111 127 98
168 62 215 238 241 281 339 0 13 57 141 166 201 210 205 169 173 172 174 181 187 190 192 193 194 193 194 193 193 193 193 192 188 187 189 191 190 184 174 167 156 141 118 117 123 119 129 124 118
132 143 223 219 260 319 306 329 13 86 200 209 172 185 179 175 178 181 183 185 190 194 196 199 200 199 198 198 199 199 199 200 199 198 202 204 205 200 196 187 170 163 162 198 182 166 152 122 111
180 194 234 275 300 299 276 298 49 120 234 226 198 173 177 180 186 191 193 196 196 196 199 201 204 206 206 205 204 206 205 206 207 207 209 213 215 213 202 190 196 162 116 165 158 146 146 139 328
296 239 234 288 312 313 265 290 302 164 229 301 225 205 183 189 194 199 203 202 201 202 204 205 206 210 213 213 213 213 213 212 213 214 215 219 222 219 214 205 212 200 173 147 169 179 205 225 245
235 257 263 270 301 292 298 268 245 249 237 255 202 190 194 198 204 207 211 211 210 211 209 211 212 214 218 218 219 220 219 220 220 220 223 225 227 225 222 216 226 220 224 212 219 242 253 245 264
279 291 292 296 288 284 257 268 288 247 186 223 198 194 200 206 212 210 213 218 219 218 217 215 219 222 222 223 224 225 225 225 224 225 227 229 232 231 224 217 232 222 224 223 237 235 240 249 263
290 308 320 268 255 238 220 287 233 260 257 207 201 208 206 216 213 217 221 220 222 224 220 219 224 226 227 226 226 227 228 228 228 229 228 231 233 225 221 220 229 228 238 233 233 239 241 247 254
344 358 331 286 108 250 173 258 268 281 285 275 224 218 216 219 220 224 226 227 225 226 222 217 220 224 224 227 227 227 228 228 229 229 229 230 229 222 224 229 231 239 243 242 239 246 246 248 246
1 256 268 300 230 238 204 244 269 294 310 290 278 234 225 228 225 224 228 230 229 227 225 221 220 223 224 225 228 228 229 228 228 226 225 225 223 222 225 231 236 240 243 239 241 246 244 241 244
199 225 255 248 315 341 296 272 279 295 294 282 292 276 246 239 234 232 230 231 233 233 229 228 226 226 226 227 228 228 230 229 229 227 225 221 221 221 223 227 230 243 244 243 242 243 236 238 238
191 231 248 240 345 356 277 298 284 291 290 274 286 287 276 255 258 246 239 232 232 237 236 232 231 231 227 226 227 227 228 227 226 226 224 223 223 221 223 224 226 235 245 243 238 233 231 233 238
231 247 261 288 249 250 299 288 283 266 272 272 267 279 282 282 280 255 248 237 233 233 238 239 238 233 234 231 232 230 230 230 230 227 224 226 227 227 223 225 228 233 240 231 233 232 229 235 237
228 231 257 263 335 264 282 282 284 269 257 279 276 270 277 284 287 283 263 237 232 231 235 237 242 243 238 235 230 229 230 233 231 231 227 227 227 226 223 226 229 235 235 231 229 230 232 233 236
244 193 254 276 292 272 146 279 280 290 259 251 277 281 279 282 285 289 275 254 240 235 236 241 241 242 244 237 232 230 230 230 233 231 229 228 225 224 225 225 229 236 232 227 226 231 234 235 233
261 326 275 263 258 286 255 248 272 214 260 256 259 275 289 293 293 292 291 281 283 256 239 241 242 240 241 241 237 233 230 234 234 231 230 229 225 224 226 227 229 233 229 225 228 231 232 231 233
306 309 309 261 61 280 265 208 279 251 263 237 259 276 280 287 288 284 286 290 296 294 269 247 241 241 243 241 237 236 234 231 231 231 231 228 227 223 224 228 232 226 225 226 229 232 232 230 231
208 226 291 233 185 234 239 258 253 237 278 266 281 292 301 305 308 308 299 296 299 306 296 271 252 251 247 241 239 237 236 232 233 234 232 229 225 223 224 226 229 223 223 226 227 228 228 228 232
198 188 190 229 207 265 189 210 242 261 271 284 292 297 306 304 301 302 312 304 304 312 313 284 264 264 256 245 242 238 235 232 233 235 233 233 228 227 223 227 226 222 223 224 225 226 227 229 232
303 251 245 266 268 273 255 284 294 284 297 306 304 308 299 299 298 294 291 300 303 311 314 304 279 262 253 254 245 237 235 230 231 231 232 235 232 231 227 231 226 221 223 223 225 223 223 225 230
197 222 316 289 299 240 246 227 247 287 298 301 332 334 328 324 319 314 312 308 300 298 306 314 283 265 255 249 241 237 235 229 229 229 232 233 235 235 232 237 225 223 222 223 221 217 217 221 221
342 349 341 306 224 241 276 259 242 310 34 348 323 314 312 313 313 311 309 309 310 307 307 307 298 269 251 243 238 232 226 229 228 228 233 234 234 237 233 231 223 220 220 218 216 213 213 215 219
155 223 183 201 305 275 273 269 271 24 342 331 312 301 312 319 318 315 315 316 318 314 312 312 302 266 249 241 234 224 223 229 226 229 233 236 235 237 233 228 222 220 218 217 211 210 205 207 207
Height
1512 1512 1512 1511 1522 1525 1527 1515 1500 1493 1496 1494 1497 1501 1501 1499 1501 1513 1499 1504 1509 1513 1517 1522 1526 1529 1531 1534 1535 1537 1538 1540 1541 1542 1543 1544 1544 1545 1545 1546 1547 1547 1547 1547 1547 1547 1547 1548 1547
1512 1512 1512 1512 1530 1537 1524 1509 1503 1492 1491 1493 1500 1501 1501 1500 1497 1497 1501 1506 1511 1514 1518 1521 1525 1529 1531 1533 1535 1537 1538 1540 1541 1543 1544 1544 1545 1546 1546 1547 1548 1548 1549 1549 1549 1549 1549 1549 1549
1512 1512 1514 1520 1537 1532 1523 1500 1495 1493 1493 1494 1499 1502 1500 1499 1497 1499 1502 1506 1511 1515 1518 1521 1525 1529 1532 1533 1535 1537 1538 1540 1541 1543 1544 1545 1545 1546 1547 1548 1549 1549 1550 1550 1551 1551 1551 1551 1551
1513 1513 1516 1526 1526 1516 1509 1499 1497 1498 1499 1501 1500 1502 1501 1499 1498 1501 1504 1508 1512 1515 1519 1523 1525 1529 1532 1534 1536 1538 1538 1540 1541 1543 1545 1546 1546 1547 1548 1548 1549 1550 1550 1551 1551 1552 1552 1552 1552
1512 1513 1525 1529 1525 1510 1500 1495 1499 1498 1498 1500 1499 1500 1501 1500 1501 1502 1504 1508 1512 1516 1520 1524 1526 1529 1532 1534 1536 1538 1539 1541 1542 1544 1545 1547 1547 1548 1548 1549 1550 1550 1551 1551 1552 1552 1552 1552 1552
1511 1514 1532 1534 1521 1504 1494 1491 1492 1493 1497 1499 1498 1497 1501 1501 1502 1503 1505 1508 1512 1516 1520 1523 1527 1530 1532 1534 1536 1538 1540 1542 1543 1544 1545 1547 1547 1548 1549 1550 1550 1551 1552 1552 1552 1552 1552 1552 1552
1511 1518 1527 1524 1518 1509 1497 1489 1489 1490 1494 1497 1497 1500 1501 1501 1503 1505 1508 1510 1513 1516 1519 1522 1526 1529 1532 1534 1536 1538 1540 1542 1544 1545 1546 1546 1547 1548 1549 1550 1551 1551 1552 1552 1552 1553 1553 1553 1553
1510 1512 1519 1519 1517 1511 1496 1491 1491 1492 1493 1495 1496 1498 1500 1498 1503 1506 1509 1512 1514 1517 1519 1522 1525 1528 1530 1532 1535 1537 1540 1542 1544 1545 1546 1546 1547 1548 1549 1550 1551 1551 1552 1552 1552 1552 1553 1553 1553
1511 1523 1526 1514 1509 1503 1495 1495 1493 1494 1493 1495 1495 1494 1494 1495 1501 1505 1509 1511 1514 1516 1518 1521 1523 1526 1528 1531 1533 1536 1538 1541 1543 1544 1545 1546 1547 1548 1549 1549 1550 1551 1551 1552 1552 1552 1552 1553 1553
1510 1522 1516 1502 1499 1500 1495 1495 1493 1495 1495 1494 1494 1494 1495 1496 1498 1500 1503 1506 1510 1512 1516 1519 1522 1523 1526 1528 1531 1533 1536 1538 1541 1542 1544 1545 1546 1547 1548 1549 1549 1550 1551 1551 1551 1552 1553 1553 1553
1506 1513 1504 1499 1500 1498 1495 1493 1492 1495 1498 1495 1493 1492 1495 1497 1500 1502 1503 1505 1507 1511 1513 1516 1520 1522 1524 1526 1528 1531 1533 1536 1538 1540 1542 1543 1545 1546 1547 1548 1549 1550 1550 1550 1551 1552 1552 1553 1553
1507 1501 1501 1498 1499 1498 1495 1492 1491 1491 1492 1493 1492 1492 1493 1495 1497 1498 1502 1504 1506 1509 1513 1515 1517 1519 1522 1525 1526 1529 1531 1533 1535 1537 1539 1541 1542 1544 1546 1547 1548 1549 1550 1550 1551 1551 1552 1552 1552
1504 1500 1500 1499 1498 1496 1494 1491 1489 1490 1490 1490 1492 1491 1492 1494 1495 1498 1500 1503 1505 1506 1509 1512 1515 1517 1519 1522 1524 1526 1528 1530 1533 1535 1537 1538 1540 1542 1543 1545 1546 1547 1548 1549 1549 1550 1550 1550 1551
1499 1498 1496 1496 1494 1493 1493 1491 1489 1483 1488 1489 1489 1489 1490 1490 1491 1496 1498 1499 1501 1503 1504 1507 1510 1514 1516 1517 1520 1522 1525 1528 1530 1531 1533 1535 1537 1539 1541 1542 1543 1544 1546 1547 1548 1549 1548 1548 1548
1499 1499 1494 1492 1491 1490 1489 1491 1487 1482 1486 1488 1489 1488 1488 1488 1490 1490 1491 1494 1495 1496 1500 1502 1504 1507 1510 1512 1514 1517 1520 1523 1525 1527 1529 1531 1533 1535 1538 1539 1541 1542 1544 1545 1546 1546 1546 1546 1546
1502 1500 1505 1490 1487 1487 1488 1495 1480 1481 1483 1483 1486 1486 1486 1484 1484 1486 1488 1490 1492 1494 1493 1496 1498 1500 1503 1505 1509 1510 1513 1516 1519 1521 1525 1526 1529 1531 1533 1535 1538 1539 1541 1542 1543 1544 1544 1544 1544
1510 1515 1505 1497 1484 1484 1486 1488 1478 1478 1479 1480 1480 1482 1482 1481 1482 1483 1484 1484 1486 1487 1489 1490 1492 1493 1496 1499 1502 1506 1509 1510 1513 1516 1518 1520 1523 1526 1528 1530 1533 1536 1537 1538 1540 1540 1541 1542 1542
1513 1510 1503 1499 1489 1485 1487 1486 1481 1477 1476 1476 1475 1476 1477 1475 1473 1474 1476 1477 1478 1480 1483 1486 1488 1489 1492 1495 1498 1501 1504 1506 1508 1510 1513 1515 1517 1520 1523 1526 1528 1531 1533 1534 1536 1537 1538 1539 1539
1498 1501 1504 1494 1488 1491 1489 1486 1482 1476 1472 1473 1472 1470 1468 1468 1466 1466 1468 1471 1474 1474 1477 1479 1481 1483 1485 1487 1490 1492 1492 1497 1501 1504 1508 1510 1512 1514 1517 1520 1523 1525 1528 1530 1532 1533 1535 1536 1536
1500 1502 1497 1492 1490 1493 1487 1481 1472 1473 1466 1464 1465 1463 1461 1460 1459 1460 1461 1462 1466 1467 1468 1471 1472 1477 1477 1478 1480 1485 1489 1491 1494 1498 1502 1504 1506 1508 1510 1513 1516 1519 1522 1524 1526 1529 1530 1532 1533
1495 1497 1495 1499 1493 1488 1493 1482 1469 1461 1462 1458 1457 1459 1458 1455 1453 1452 1452 1453 1453 1459 1460 1462 1464 1465 1468 1470 1474 1479 1485 1487 1489 1489 1493 1495 1499 1502 1505 1507 1510 1513 1515 1517 1520 1523 1525 1526 1528
1499 1490 1493 1496 1501 1504 1488 1498 1465 1462 1461 1456 1453 1453 1453 1451 1449 1447 1447 1447 1447 1449 1452 1453 1455 1457 1458 1462 1464 1467 1468 1471 1472 1478 1483 1487 1492 1496 1498 1500 1503 1505 1508 1510 1514 1517 1520 1521 1522
1489 1488 1490 1493 1497 1498 1489 1501 1445 1459 1460 1455 1450 1446 1445 1448 1447 1445 1444 1444 1444 1447 1445 1443 1444 1446 1449 1450 1453 1455 1460 1463 1468 1472 1475 1479 1484 1489 1493 1495 1496 1498 1501 1504 1507 1510 1513 1515 1516
1487 1487 1487 1486 1500 1519 1481 1495 1451 1456 1452 1449 1447 1446 1444 1441 1442 1443 1441 1440 1439 1439 1441 1442 1441 1439 1438 1439 1442 1443 1448 1454 1458 1461 1465 1472 1477 1481 1483 1485 1488 1489 1492 1497 1501 1505 1508 1510 1512
1486 1493 1507 1502 1505 1503 1481 1489 1461 1440 1444 1446 1447 1445 1443 1439 1437 1437 1437 1437 1435 1434 1433 1433 1433 1433 1432 1431 1431 1432 1437 1444 1448 1452 1457 1461 1467 1471 1474 1478 1479 1482 1486 1492 1496 1500 1503 1505 1507
1483 1488 1503 1503 1499 1481 1470 1485 1445 1437 1445 1446 1445 1444 1441 1439 1435 1432 1433 1432 1428 1426 1425 1423 1422 1424 1423 1422 1422 1423 1428 1433 1438 1444 1451 1455 1458 1461 1466 1472 1475 1479 1482 1486 1490 1494 1497 1500 1502
1484 1488 1480 1489 1485 1490 1476 1464 1444 1437 1441 1443 1444 1442 1439 1437 1436 1429 1427 1422 1419 1417 1415 1414 1412 1411 1410 1410 1412 1415 1417 1423 1426 1434 1445 1450 1453 1456 1462 1466 1470 1473 1475 1479 1484 1488 1491 1495 1498
1479 1480 1492 1488 1499 1499 1472 1471 1458 1441 1446 1445 1448 1444 1438 1435 1432 1427 1422 1419 1415 1411 1407 1404 1401 1397 1395 1398 1400 1403 1407 1412 1419 1427 1434 1442 1447 1451 1455 1459 1464 1468 1472 1476 1479 1482 1486 1490 1493
1487 1486 1485 1484 1487 1488 1484 1469 1441 1440 1448 1449 1447 1443 1437 1431 1427 1421 1415 1411 1409 1403 1399 1393 1388 1385 1385 1386 1391 1396 1403 1404 1410 1420 1426 1432 1438 1441 1445 1449 1454 1459 1464 1467 1472 1476 1479 1485 1490
1485 1488 1488 1501 1494 1490 1482 1461 1439 1442 1443 1445 1444 1441 1432 1423 1419 1417 1411 1403 1400 1397 1391 1383 1375 1374 1374 1375 1382 1390 1397 1397 1405 1413 1418 1425 1429 1433 1436 1441 1446 1452 1461 1467 1467 1471 1473 1479 1484